Address 0xf60788b7f23cbec4a1a6ee644a8eb081f9a89af2

 
Txn Hash Method
Block
From
To
Value [Txn Fee]
0xb5a81e14a983939fcc73258a4ab61e0076a10621e7037e40bfa9f39051542e0b0xac44ff3134769902021-12-01 3:11:156 days 9 hrs ago0xc2e75f0c9ba9f74d13b7a17179fbc3e147e4f944 IN 0xf60788b7f23cbec4a1a6ee644a8eb081f9a89af20 ETH0.001106186667 ETH
0xfccfcb22c4fa427fe6ef8570b85e0bf7c0412fc480f7d9fdb77f1778dd0b653b0xf24bcd0d34696422021-11-30 21:30:576 days 14 hrs ago0x75a95c8f194a175594c665d62ff04f2227e977b1 IN 0xf60788b7f23cbec4a1a6ee644a8eb081f9a89af20 ETH0.001067254803 ETH
0x225b9c0834e13e50552031dfd92669c6e6e4c2c991761c42cedfc625c7f5bca9Withdraw34696222021-11-30 21:28:486 days 14 hrs ago0x75a95c8f194a175594c665d62ff04f2227e977b1 IN 0xf60788b7f23cbec4a1a6ee644a8eb081f9a89af20 ETH0.00102075455 ETH
0x253ff1bb5f3c099e366dbb9a569b56f2844d466093f1a8df2a9879bf19c4c4640xf24bcd0d34695972021-11-30 21:27:556 days 14 hrs ago0x75a95c8f194a175594c665d62ff04f2227e977b1 IN 0xf60788b7f23cbec4a1a6ee644a8eb081f9a89af20 ETH0.001068794916 ETH
0x326144cb0c89cf28d04528ee8aca6a79c9c3465b15e56c9369dee652c833eaf9Withdraw34695682021-11-30 21:27:076 days 14 hrs ago0x75a95c8f194a175594c665d62ff04f2227e977b1 IN 0xf60788b7f23cbec4a1a6ee644a8eb081f9a89af20 ETH0.001022294663 ETH
0xd1273c8c300f5c142270eac5653def524ae7a059a39ea42744e03641250175eb0xf24bcd0d34403852021-11-29 18:33:497 days 17 hrs ago0x32844a824f458f24878515923f1fa120b6b711f2 IN 0xf60788b7f23cbec4a1a6ee644a8eb081f9a89af20 ETH0.001048939424 ETH
0xe0152f81446227501e3e18ef23a8c8a822a6bd553f910a59294fe6852c8cbc1f0xf24bcd0d33603372021-11-26 16:31:4910 days 19 hrs ago0x9111a2e92ebf78295893700980de1ab7184d7664 IN 0xf60788b7f23cbec4a1a6ee644a8eb081f9a89af20 ETH0.001038443 ETH
0xebca714454f478a6839c8ea436e49374a1116ffe39ce049957c6c853c436dd22Withdraw33603222021-11-26 16:31:1710 days 19 hrs ago0x9111a2e92ebf78295893700980de1ab7184d7664 IN 0xf60788b7f23cbec4a1a6ee644a8eb081f9a89af20 ETH0.000993272985 ETH
0xa8af9f03483f66d345605dbbffafa7f9c36dac58cd4944e155ba1f5cdb9432cc0xac44ff3133599112021-11-26 16:13:0610 days 20 hrs ago0x14b5eb80797280066665602246b6acbe77bfb90e IN 0xf60788b7f23cbec4a1a6ee644a8eb081f9a89af20 ETH0.000798292409 ETH
0x4610586775f28deca7be22d093379e266929b1c20888ad52f2d03fdcc34079150xac44ff3133599002021-11-26 16:13:0610 days 20 hrs ago0x14b5eb80797280066665602246b6acbe77bfb90e IN 0xf60788b7f23cbec4a1a6ee644a8eb081f9a89af20 ETH0.000795308256 ETH
0x06e30f627fc8d57f13deb7f871d3998b5dc726a9597efa36966cc9bb7ddac1670xac44ff3133574012021-11-26 14:23:5510 days 22 hrs ago0x84c3a310f1cc555a653141b87ce114d4cbbd5955 IN 0xf60788b7f23cbec4a1a6ee644a8eb081f9a89af20 ETH0.001018908681 ETH
0xc5c817ece3106aefaf22585e9d8ec5d41d121e9a6cf449b87ede2da068faae980xac44ff3133553432021-11-26 12:44:3310 days 23 hrs ago0x9e5a57470a2a136a3d4de39e1996e05944c4b1fb IN 0xf60788b7f23cbec4a1a6ee644a8eb081f9a89af20 ETH0.000817142947 ETH
0x818136231a2903b2bed167e67a7ff4ebd2ae697db57f7e0721fd5b33584f053f0xac44ff3133553092021-11-26 12:42:4210 days 23 hrs ago0x9e5a57470a2a136a3d4de39e1996e05944c4b1fb IN 0xf60788b7f23cbec4a1a6ee644a8eb081f9a89af20 ETH0.001040714074 ETH
0x9f00d6f90c11de098ed1a6c794ba32e46876ffe71bc95f5a8c6f11afd2e67a230xac44ff3133522102021-11-26 10:51:3511 days 1 hr ago0xdca4ef250f916f078c1a3b4bb18ff003a22fa7f9 IN 0xf60788b7f23cbec4a1a6ee644a8eb081f9a89af20 ETH0.001035083619 ETH
0xc31ec87da1049ce5cd16afe540508fcb5cf579f76be7b2c50b70e2cb2375c0570xac44ff3133495552021-11-26 9:07:1311 days 3 hrs ago0x101720c0a8435e51551c023be6e9df6f345b2dad IN 0xf60788b7f23cbec4a1a6ee644a8eb081f9a89af20 ETH0.001006532601 ETH
0x7ba03d9412dabc1db9aaff04459ce2cc14b0bba70917c9f3b3218e4b0443aa590xac44ff3133491032021-11-26 8:57:5911 days 3 hrs ago0x32b466947abbda8be79673d47bcec899933e6827 IN 0xf60788b7f23cbec4a1a6ee644a8eb081f9a89af20 ETH0.000787904059 ETH
0x60f984e78fe955f794421ae402f64c10690b90e07917973dc21e4d8789e08b690xac44ff3133476882021-11-26 8:34:0911 days 3 hrs ago0x444113187164527ec0fc6c541f6a248acdce9dd8 IN 0xf60788b7f23cbec4a1a6ee644a8eb081f9a89af20 ETH0.000787879321 ETH
0xf96c972b1da5e0ef2630008932b977c7b0484d1d03fdabc79af841d8eefae12d0xac44ff3133473182021-11-26 8:27:5311 days 3 hrs ago0xf381ffdfc936e8324853007beba02b9845971412 IN 0xf60788b7f23cbec4a1a6ee644a8eb081f9a89af20 ETH0.000789865895 ETH
0xaa3f4c609b00f6487bbb6a0bc9bfd6a1a66dc66cbcba3b97f6ff9fcf67f01c920xac44ff3133472692021-11-26 8:27:5311 days 3 hrs ago0xf381ffdfc936e8324853007beba02b9845971412 IN 0xf60788b7f23cbec4a1a6ee644a8eb081f9a89af20 ETH0.000788381612 ETH
0xe962cd531b456be99e9a78dbe82ee5b592cd7fe3661af4dfd463b028ab1d8de70xac44ff3133470512021-11-26 8:25:1611 days 4 hrs ago0x4c180462a051ab67d8237ede2c987590df2fbbe6 IN 0xf60788b7f23cbec4a1a6ee644a8eb081f9a89af20 ETH0.001005534474 ETH
0xb708d2ceda933587eefe34d0f950ebc2ded2f3512feecef35c23cf1c9990c94b0xac44ff3133466612021-11-26 8:19:5011 days 4 hrs ago0x4ab34c465ad15b31ad29bf5a489108e1e2621d3c IN 0xf60788b7f23cbec4a1a6ee644a8eb081f9a89af20 ETH0.001004544952 ETH
0x8afdebc494b80fdf4d7eeef62c40071ab1b0f7418ca8f9a0e4c629323104ee000xac44ff3133465502021-11-26 8:17:3211 days 4 hrs ago0xb354fe945842b0660111d1700bf2515e40a273d8 IN 0xf60788b7f23cbec4a1a6ee644a8eb081f9a89af20 ETH0.000787904059 ETH
0x33d6d0e344801c7481a85a947aa926e5145199b85f7748c430a0ca02826867630xf24bcd0d33455032021-11-26 7:44:3811 days 4 hrs ago0xc2e75f0c9ba9f74d13b7a17179fbc3e147e4f944 IN 0xf60788b7f23cbec4a1a6ee644a8eb081f9a89af20 ETH0.001024993894 ETH
0x9f547875e1a892fe0b82aeb4fb62de2f5186d54f8c8c48f6e240b76d3ed8cef10xf24bcd0d33452192021-11-26 7:36:5711 days 4 hrs ago0x9111a2e92ebf78295893700980de1ab7184d7664 IN 0xf60788b7f23cbec4a1a6ee644a8eb081f9a89af20 ETH0.001024978909 ETH
0x7c60e09f4d343346e2f14c2038131f03d1591fa2529f67c0207a46dbe709f81bWithdraw33451412021-11-26 7:34:3311 days 4 hrs ago0x9111a2e92ebf78295893700980de1ab7184d7664 IN 0xf60788b7f23cbec4a1a6ee644a8eb081f9a89af20 ETH0.000978917204 ETH
[ Download CSV Export 
Parent Txn Hash Block From To Value
Loading

Contract Name:
0 ETH

Compiler Version
0

Optimization Enabled:
0 ETH

Other Settings:
-NA-
Block Transaction Gas Used Reward
Age Block Fee Address BC Fee Address Voting Power Jailed Incoming
Block Uncle Number Difficulty Gas Used Reward
Loading
Loading
Make sure to use the "Vote Down" button for any spammy posts, and the "Vote Up" for interesting conversations.